Regional Weather Roundup
Issued by NWS Northern Indiana

Home | Current Version | Previous Version | Graphics & Text | Print | Product List | Glossary On
Versions: 1 2 3 4 5 6 7 8 9 10 11 12 13 14 15 16 17 18 19 20 21 22 23 24 25 26 27 28 29 30 31 32 33 34 35 36 37 38 39 40 41 42 43 44 45 46 47 48 49 50
000
ASUS43 KIWX 270600
RWRIWX

KIWX WEATHER ROUNDUP
NATIONAL WEATHER SERVICE NORTHERN INDIANA
200 AM EDT SAT AUG 27 2016

NOTE: "FAIR" INDICATES FEW OR NO CLOUDS BELOW 12,000 FEET WITH NO
SIGNIFICANT WEATHER AND/OR OBSTRUCTIONS TO VISIBILITY.

* THESE STATIONS ARE NOT UNDER NWS QUALITY CONTROL. THEY ALSO MAY NOT
  REPORT WEATHER SUCH AS PRECIPITATION OR FOG.

INZ001>027-270700-
NORTHERN INDIANA

CITY           SKY/WX    TMP DP  RH WIND       PRES   REMARKS
KNOX*          FAIR      68  54  60 N3        30.11R
SOUTH BEND     MOCLDY    70  64  81 E5        30.13S
6HR MIN TEMP:  70; 6HR MAX TEMP:  75;

GOSHEN         MOCLDY    72  67  84 N3        30.12F
6HR MIN TEMP:  71; 6HR MAX TEMP:  76; 6HR PCP: TRACE;

MONTICELLO*    CLEAR     71  67  88 CALM      30.10R
6HR MIN TEMP:  71; 6HR MAX TEMP:  77;

ANGOLA*        MOCLDY    70  61  73 CALM      30.14S
FORT WAYNE     CLOUDY    72  65  78 E5        30.13R
6HR MIN TEMP:  71; 6HR MAX TEMP:  79;

PERU/GRISSOM   CLOUDY    71  71 100 E5        30.09S
6HR MIN TEMP:  71; 6HR MAX TEMP:  76; 6HR PCP:  0.01;


$$
INZ028>050-270700-
CENTRAL INDIANA

CITY           SKY/WX    TMP DP  RH WIND       PRES   REMARKS
LAFAYETTE      PTCLDY    71  70  96 NE3       30.09R
6HR MIN TEMP:  71; 6HR MAX TEMP:  76; 6HR PCP: TRACE;

KOKOMO*        PTCLDY    72  70  94 CALM      30.10R
6HR MIN TEMP:  72; 6HR MAX TEMP:  75;

MUNCIE*        CLOUDY    72  70  93 SE3       30.12R
6HR MIN TEMP:  71; 6HR MAX TEMP:  79; 6HR PCP:  0.09;

INDIANAPOLIS   MOCLDY    72  69  90 E3        30.09S
6HR MIN TEMP:  72; 6HR MAX TEMP:  73;


$$
MIZ043>046-050>051-056>058-064>065-071>073-077>080-270700-
SOUTHWEST LOWER MICHIGAN

CITY           SKY/WX    TMP DP  RH WIND       PRES   REMARKS
BATTLE CREEK   FAIR      65  61  87 E5        30.15F
6HR MIN TEMP:  64; 6HR MAX TEMP:  76;

BENTON HARBOR  MOCLDY    68  59  73 E7        30.11F
6HR MIN TEMP:  67; 6HR MAX TEMP:  73;

COLDWATER*     FAIR      68  67  95 NE3       30.14F
6HR MIN TEMP:  67; 6HR MAX TEMP:  74;

HILLSDALE*     FAIR      65  64  94 CALM      30.16S
6HR MIN TEMP:  51; 6HR MAX TEMP:  84;

HOLLAND        FAIR      65  58  78 CALM      30.15S
6HR MIN TEMP:  63; 6HR MAX TEMP:  71;

GRAND RAPIDS   FAIR      62  58  86 NE6       30.15F
6HR MIN TEMP:  62; 6HR MAX TEMP:  75;

KALAMAZOO      FAIR      68  61  78 CALM      30.14S
6HR MIN TEMP:  67; 6HR MAX TEMP:  78;

STURGIS*       CLOUDY    70  66  89 CALM      30.14R
6HR MIN TEMP:  69; 6HR MAX TEMP:  75;


$$
OHZ001>008-015>018-024>025-270700-
NORTHWEST OHIO

CITY           SKY/WX    TMP DP  RH WIND       PRES   REMARKS
DEFIANCE       FAIR      73  65  75 CALM      30.14R
6HR MIN TEMP:  72; 6HR MAX TEMP:  78;

FINDLAY        FAIR      73  60  63 E3        30.13S
6HR MIN TEMP:  72; 6HR MAX TEMP:  81;

TOLEDO EXPRESS FAIR      66  66 100 CALM      30.13F
6HR MIN TEMP:  66; 6HR MAX TEMP:  74;

TOLEDO METCALF FAIR      70  66  87 E3        30.14F
6HR MIN TEMP:  70; 6HR MAX TEMP:  79;

LIMA           CLOUDY    71  67  87 E7        30.14S
6HR MIN TEMP:  70; 6HR MAX TEMP:  76;


$$
AND FOR LAKE MICHIGAN COASTAL AND OPEN LAKE BUOY OBSERVATIONS

STATION/POSITION TEMP    WIND        PRES    VSBY  WAVE
                 AIR SEA DIR/SP/G                  HT/PER
                 (F)     (DEG/KT/KT) (MB)    (MI)  (FT/S)
CALUMET HARBOR    71      40/  5/  8 1019.4F
MICHIGAN CITY     71      50/  8/ 10   N/A
BURNS HARBOR      72      80/  7/ 15 1020.0F
SAINT JOSEPH      69      30/  3/  6 1020.0F
SOUTH LAKE BUOY   72 75   60/ 14/ 16 1019.6          1/ 2
4 MI NW BRIDGMAN  71 76   70/ 10/ 14 1019.6F         2/ 3
MICHIGAN CITY     72 75   80/ 12/ 14   N/A           3/ 4

$$
&&




USA.gov is the U.S. government's official web portal to all federal, state and local government web resources and services.